Torna al catalogo

STARLINK-31253

AttivoComunicazioniVLEO
NORAD 58830·PAYLOAD·🇺🇸 United States

Lanciato Jan 24, 2024 da Vandenberg Space Force Base

Loading…

Prossimi Passaggi (prossime 24 ore)

TLE

AggiornatoSource: CelesTrak SupGP

Epoca: Sep 15, 2026, 02:37 UTC

1 58830C 24017E   26258.10951389 -.00016942  00000+0 -54495-3 0  2588
2 58830  53.1600  42.8142 0001235  87.2206 169.7976 15.31703159    19

Traccia STARLINK-31253 in tempo reale con AllMySat

Download on the App Store